contact:dominique.lefevre@mio.osupytheas.fr, maurice.libes@osupytheas.fr
Project:EMSO Ligure-ouest http://www.emso-fr.org/EMSO-France
Sensor Aquadopp, line 04 Serial AQD8517 
DOI : "https://doi.org/10.17882/74513; https://doi.org/10.17882/83244" 
Title:EMSO Ligure Ouest : Data ligne ALBATROSS capteur AQUADOPP - deploiement 2021
Id,Date,Profondeur,Latitude,Longitude,X_East,Y_North,Z_Up,Amplitude_X,Amplitude_Y,Amplitude_Z,Batterie,SoundSpeed,Heading,Pitch,Roll,Pressure,Temperature,Speed,Direction
, , m, degrees North, degrees East, m.s-1, m.s-1,m.s-1, 1, 1, 1, Volt, m.s-1, degree, degree, degree, dbar, degree_C, m.s-1, degree
04,2022-05-16T21:30:00,1000.0,42.79,6.0312,-0.051,-0.013,0.02,59.0,60.0,58.0,12.0,1505.0,224.9,-0.7,-0.1,967.343,13.4,0.052,255.7
04,2022-05-16T22:00:00,1000.0,42.79,6.0312,-0.06,-0.017,0.018,55.0,60.0,62.0,12.0,1504.9,225.4,-0.7,-0.1,967.307,13.37,0.062,254.2
04,2022-05-16T22:30:00,1000.0,42.79,6.0312,-0.059,-0.001,0.013,61.0,60.0,56.0,12.0,1504.9,232.5,-0.6,-0.1,967.302,13.36,0.059,269.0
04,2022-05-16T23:00:00,1000.0,42.79,6.0312,-0.06,0.003,0.005,56.0,62.0,55.0,12.0,1504.9,234.0,-0.7,-0.1,967.304,13.35,0.06,272.9
04,2022-05-16T23:30:00,1000.0,42.79,6.0312,-0.057,-0.009,-0.002,58.0,59.0,58.0,12.0,1504.9,231.9,-0.6,-0.1,967.276,13.36,0.057,261.0
04,2022-05-17T00:00:00,1000.0,42.79,6.0312,-0.055,-0.015,0.008,59.0,57.0,54.0,12.0,1504.9,235.7,-0.6,-0.1,967.272,13.37,0.057,254.7
04,2022-05-17T00:30:00,1000.0,42.79,6.0312,-0.048,0.004,0.0,56.0,58.0,55.0,12.0,1504.9,236.3,-0.6,-0.1,967.215,13.38,0.048,274.8
04,2022-05-17T01:00:00,1000.0,42.79,6.0312,-0.041,0.01,0.003,60.0,61.0,54.0,12.0,1504.9,238.8,-0.6,-0.1,967.224,13.37,0.042,283.7
04,2022-05-17T01:30:00,1000.0,42.79,6.0312,-0.039,0.002,-0.011,60.0,58.0,60.0,12.0,1504.9,247.7,-0.8,-0.1,967.214,13.37,0.039,272.9
04,2022-05-17T02:00:00,1000.0,42.79,6.0312,-0.049,-0.014,0.006,56.0,64.0,57.0,12.0,1504.9,236.4,-0.6,-0.1,967.182,13.38,0.05,254.1
04,2022-05-17T02:30:00,1000.0,42.79,6.0312,-0.062,0.008,-0.004,60.0,62.0,58.0,12.0,1504.9,244.2,-0.6,-0.1,967.213,13.37,0.062,277.3
04,2022-05-17T03:00:00,1000.0,42.79,6.0312,-0.067,0.02,-0.005,65.0,68.0,64.0,12.0,1504.9,248.8,-0.7,-0.1,967.2,13.36,0.069,286.6
04,2022-05-17T03:30:00,1000.0,42.79,6.0312,-0.052,0.01,-0.016,68.0,69.0,66.0,12.0,1504.9,246.3,-0.7,-0.1,967.224,13.38,0.052,280.9
04,2022-05-17T04:00:00,1000.0,42.79,6.0312,-0.038,0.019,-0.013,67.0,69.0,66.0,12.0,1504.9,259.9,-0.8,-0.1,967.233,13.37,0.042,296.6
04,2022-05-17T04:30:00,1000.0,42.79,6.0312,-0.048,0.0,0.001,67.0,70.0,68.0,12.0,1504.9,248.2,-0.7,-0.1,967.265,13.38,0.048,270.0
04,2022-05-17T05:00:00,1000.0,42.79,6.0312,-0.041,0.015,-0.004,68.0,75.0,68.0,12.0,1505.0,263.7,-0.7,-0.1,967.256,13.4,0.043,290.1
04,2022-05-17T05:30:00,1000.0,42.79,6.0312,-0.032,0.022,0.007,69.0,71.0,68.0,12.0,1505.0,263.7,-0.8,-0.1,967.287,13.39,0.038,304.5
04,2022-05-17T06:00:00,1000.0,42.79,6.0312,-0.043,0.017,-0.002,69.0,73.0,67.0,12.0,1504.9,263.4,-0.7,-0.1,967.326,13.38,0.046,291.6
04,2022-05-17T06:30:00,1000.0,42.79,6.0312,-0.044,0.022,-0.009,68.0,70.0,66.0,12.0,1504.9,254.0,-0.6,-0.1,967.357,13.38,0.049,296.6
04,2022-05-17T07:00:00,1000.0,42.79,6.0312,-0.035,0.023,-0.002,67.0,70.0,67.0,12.0,1504.9,255.4,-0.6,-0.1,967.378,13.38,0.041,303.3
04,2022-05-17T07:30:00,1000.0,42.79,6.0312,-0.044,0.01,0.006,68.0,69.0,68.0,12.0,1504.9,253.5,-0.7,-0.1,967.364,13.38,0.045,282.8
04,2022-05-17T08:00:00,1000.0,42.79,6.0312,-0.032,0.009,0.017,67.0,71.0,67.0,12.0,1504.9,254.4,-0.7,-0.1,967.361,13.36,0.033,285.7
04,2022-05-17T08:30:00,1000.0,42.79,6.0312,-0.037,0.009,-0.014,68.0,75.0,70.0,12.0,1504.9,247.4,-0.8,-0.1,967.387,13.36,0.038,283.7
04,2022-05-17T09:00:00,1000.0,42.79,6.0312,-0.029,0.007,-0.013,72.0,72.0,72.0,12.0,1504.9,240.9,-0.7,0.0,967.341,13.36,0.029,283.6
04,2022-05-17T09:30:00,1000.0,42.79,6.0312,-0.06,0.02,0.013,70.0,72.0,69.0,12.0,1504.9,257.6,-0.8,-0.1,967.355,13.35,0.063,288.4
04,2022-05-17T10:30:00,1000.0,42.79,6.0312,-0.052,-0.009,-0.004,69.0,72.0,68.0,12.0,1504.9,246.5,-0.7,0.0,967.35,13.36,0.052,260.2
04,2022-05-17T11:00:00,1000.0,42.79,6.0312,-0.054,-0.007,-0.007,70.0,73.0,69.0,12.0,1504.9,235.9,-0.7,0.0,967.302,13.38,0.054,262.6
04,2022-05-17T11:30:00,1000.0,42.79,6.0312,-0.045,-0.001,0.0,69.0,70.0,67.0,12.0,1504.9,251.0,-0.8,-0.1,967.307,13.38,0.045,268.7
04,2022-05-17T12:00:00,1000.0,42.79,6.0312,-0.058,0.01,0.013,68.0,69.0,67.0,12.0,1505.0,265.6,-0.9,-0.1,967.277,13.39,0.058,279.8
04,2022-05-17T12:30:00,1000.0,42.79,6.0312,-0.056,0.01,-0.009,67.0,72.0,66.0,12.0,1505.0,266.4,-0.9,-0.2,967.23,13.39,0.056,280.1
04,2022-05-17T13:00:00,1000.0,42.79,6.0312,-0.056,-0.001,0.008,68.0,71.0,68.0,12.0,1505.0,248.9,-0.9,-0.1,967.247,13.4,0.056,269.0
04,2022-05-17T13:30:00,1000.0,42.79,6.0312,-0.049,0.009,-0.004,68.0,70.0,67.0,12.0,1505.0,267.8,-0.9,0.0,967.247,13.39,0.049,280.4
04,2022-05-17T14:00:00,1000.0,42.79,6.0312,-0.053,0.001,-0.004,69.0,72.0,69.0,12.0,1505.0,245.8,-0.7,0.0,967.241,13.39,0.053,271.1
04,2022-05-17T14:30:00,1000.0,42.79,6.0312,-0.067,0.018,0.002,68.0,71.0,66.0,12.0,1504.9,254.0,-0.8,0.1,967.233,13.38,0.069,285.0
04,2022-05-17T15:00:00,1000.0,42.79,6.0312,-0.064,0.02,-0.005,67.0,71.0,69.0,12.0,1505.0,258.2,-0.9,0.0,967.231,13.39,0.067,287.4
04,2022-05-17T15:30:00,1000.0,42.79,6.0312,-0.061,0.006,-0.013,68.0,70.0,66.0,12.0,1504.9,253.9,-0.7,0.0,967.237,13.38,0.061,275.6
04,2022-05-17T16:00:00,1000.0,42.79,6.0312,-0.061,0.017,0.005,69.0,72.0,69.0,12.0,1504.9,255.2,-0.8,-0.1,967.242,13.38,0.063,285.6
04,2022-05-17T16:30:00,1000.0,42.79,6.0312,-0.066,0.031,0.005,69.0,72.0,68.0,12.0,1504.9,258.5,-0.6,0.0,967.303,13.38,0.072,295.2
04,2022-05-17T17:00:00,1000.0,42.79,6.0312,-0.066,0.025,-0.001,69.0,73.0,69.0,12.0,1504.9,255.2,-0.7,0.0,967.361,13.38,0.07,290.7
04,2022-05-17T17:30:00,1000.0,42.79,6.0312,-0.059,0.024,-0.014,69.0,71.0,67.0,12.0,1504.9,256.2,-1.0,0.0,967.424,13.37,0.063,292.1
04,2022-05-17T18:00:00,1000.0,42.79,6.0312,-0.055,0.021,0.012,67.0,72.0,66.0,12.0,1504.9,262.1,-1.0,-0.1,967.453,13.38,0.058,290.9
04,2022-05-17T18:30:00,1000.0,42.79,6.0312,-0.049,0.024,0.008,69.0,70.0,68.0,12.0,1504.9,271.8,-0.7,-0.1,967.524,13.38,0.054,296.1
04,2022-05-17T19:00:00,1000.0,42.79,6.0312,-0.059,0.031,0.012,70.0,71.0,68.0,12.0,1504.9,277.2,-1.1,-0.1,967.561,13.38,0.066,297.7
04,2022-05-17T19:30:00,1000.0,42.79,6.0312,-0.066,0.029,-0.003,68.0,70.0,69.0,12.0,1504.9,269.4,-1.1,-0.1,967.589,13.37,0.072,293.7
04,2022-05-17T20:00:00,1000.0,42.79,6.0312,-0.053,0.017,0.0,67.0,69.0,65.0,12.0,1504.9,262.5,-1.1,0.0,967.613,13.36,0.055,287.8
04,2022-05-17T20:30:00,1000.0,42.79,6.0312,-0.062,0.021,0.0,67.0,70.0,69.0,12.0,1504.9,265.7,-0.8,0.0,967.56,13.36,0.065,288.7
04,2022-05-17T21:00:00,1000.0,42.79,6.0312,-0.041,0.021,-0.003,69.0,67.0,68.0,12.0,1504.9,264.5,-1.0,0.0,967.607,13.36,0.046,297.1
